This is the latest recevied weather packets stored in our database for station/object HOWARD. If no packets are shown the sender has not sent any weather packets the latest 10 day(s).
| Time | Temp. | Humidity | Pressure | Rain* | Wind** | Luminosity | Snow |
|---|---|---|---|---|---|---|---|
| 1787788474 | 20.56° C | 24% | 1020.9 hPa | 0 mm | - | - | - |
| 1787787875 | 21.11° C | 25% | 1021 hPa | 0 mm | - | - | - |
| 1787787274 | 21.11° C | 27% | 1021.2 hPa | 0 mm | - | - | - |
| 1787786674 | 20.56° C | 25% | 1021 hPa | 0 mm | - | - | - |
| 1787786075 | 21.11° C | 24% | 1021 hPa | 0 mm | - | - | - |
| 1787785525 | 20° C | 29% | 1021.2 hPa | 0 mm | - | - | - |
| 1787785474 | 20° C | 29% | 1021.2 hPa | 0 mm | - | - | - |
| 1787784874 | 20° C | 27% | 1021.2 hPa | 0 mm | - | - | - |
| 1787784311 | 20.56° C | 28% | 1021.3 hPa | 0 mm | - | - | - |
| 1787784274 | 20.56° C | 28% | 1021.3 hPa | 0 mm | - | - | - |
| 1787783674 | 20.56° C | 26% | 1021.3 hPa | 0 mm | - | - | - |
| 1787783074 | 21.11° C | 25% | 1021.1 hPa | 0 mm | - | - | - |
| 1787782474 | 20.56° C | 27% | 1021.3 hPa | 0 mm | - | - | - |
| 1787781874 | 21.11° C | 28% | 1021.2 hPa | 0 mm | - | - | - |
| 1787781274 | 20.56° C | 30% | 1021.5 hPa | 0 mm | - | - | - |
| 1787780674 | 20.56° C | 29% | 1021.5 hPa | 0 mm | - | - | - |
| 1787780074 | 20.56° C | 29% | 1021.5 hPa | 0 mm | - | - | - |
| 1787779474 | 20° C | 31% | 1021.4 hPa | 0 mm | - | - | - |
| 1787778874 | 20° C | 31% | 1021.6 hPa | 0 mm | - | - | - |
| 1787778274 | 20° C | 34% | 1021.7 hPa | 0 mm | - | - | - |
| 1787777674 | 19.44° C | 32% | 1021.7 hPa | 0 mm | - | - | - |
| 1787777074 | 20° C | 31% | 1021.8 hPa | 0 mm | - | - | - |
| 1787776474 | 19.44° C | 32% | 1021.7 hPa | 0 mm | - | - | - |
| 1787775874 | 19.44° C | 33% | 1021.4 hPa | 0 mm | - | - | - |
| 1787775274 | 19.44° C | 34% | 1021.8 hPa | 0 mm | - | - | - |
* Rain latest hour (hover to see other rain measurements)
** Current wind speed in m/s (hover to see current wind gust speed)